STARLINK-36734

Last updated on Mon Mar 30 2026 00:02:05 GMT+0000 (Coordinated Universal Time)

1 67988U 26039C 26088.16668981 -.01912581 00000+0 -45135-1 0 9994 2 67988 42.9994 299.7550 0001608 267.9065 69.6281 15.44380542 6008
UTC large
Height (km)
Speed (km/s)
/
Latitude / Longitude
Inclination (degrees)
Orbital Period (minutes)
Azimuth
Elevation
Range (km)
Doppler Factor

Next 0 passes for location: London (51.5072 / 0.1276)

Sorry there are no passes over London.